Погода Сегян-Кюель

Погода Сегян-Кюель : погода сейчас, прогноз погоды и архив. Всё, что Вы хотите узнать о погоде Сегян-Кюель!

Поиск расширенной информации на нашем сайте:

Другие новости

Новости СМИ2

Главная страница сайта

Новости сайта

03.07.2017

Напоминаем, что на нашем специализированном сайте Метеоцентр.Азия вы можете получить высокодетализированные автоматические прогнозы погоды по пунктам России, СНГ и мира в авиационном формате (включающие направление и скорость ветра, видимость, явления погоды, количество и форму облачности, нижнюю и верхнюю границу облачности).

Рекомендуем: недорогая финская сауна

Погода Сегян-Кюель - сегодня

Время (UTC), дата Ветер
(°,м/с) 
Видим.   Явления Облачность Т
(°С)
Тd
(°С)
f(%) Тe
(°С)
Pmin
(гПа)
dP
(гПа)
Po
(мм)
O2
(г/м3)
Тmin Tmax R s Состояние
почвы
21 19.07.17 тихо ()   20000 м    1/0 верхняя 
[Ci fib]
+11.9 +5.9 67 +12  998.9  1.6  731  281           
00 20.07.17 040 (СВ) 20000 м    10/0 верхняя 
[Ci fib]
+20.3 +8.5 47 +20  998.1  731  273  +6.6        сухая 
03 20.07.17 020 (С) 4000 м  дым  8/0 средняя, верхняя 
[Ac trans|Ci fib]
+22.6 +12.7 54 +28  997.7  -0.2  731  269           
06 20.07.17 тихо ()   4000 м  дым  8/4 1000 м кучево-дожд., средняя, верхняя 
[Cb cap|Ac trans|Ci fib]
+23.9 +9.7 41 +25  997.6  -0.1  731  269           
09 20.07.17 010 (С) 10 км    8/4 1000 м кучево-дожд., средняя, верхняя 
[Cb cap|Ac trans|Ci fib]
+16.8 +3.4 41 +16  1000.7  2.6  732  277           
12 20.07.17 020 (С) 20000 м    10/8 600 м кучево-дожд., средняя, верхняя 
[Cb cap|Ac trans|Ci fib]
+12.4 +3.7 55 +11  1003.2  1.8  734  282    +25       
15 20.07.17 020 (С) 20000 м    8/8 600 м кучево-дожд., средняя 
[Cb cap|Ac trans]
+10.9 +0.4 48 +9  1004.6  1.4  735  285           
18 20.07.17 020 (С) 20000 м    10/8 600 м кучево-дожд., средняя, верхняя 
[Cb cap|Ac trans|Ci fib]
+9.8 +2.5 60 +8  1005.2  0.5  735  286           
21 20.07.17 360 (С) 20000 м  слаб. ливневой дождь  10/10 600 м кучево-дожд. 
[Cb cap]
+7.9 +0.4 59 +6  1006.3  736  288           
00 21.07.17 010 (С) 20000 м  слаб. ливневой дождь  10/10 600 м кучево-дожд. 
[Cb cap]
+7.8 -0.1 57 +5  1007.2  0.8  737  289  +7.4    0.0    влажная 
03 21.07.17 360 (С) 20000 м  слаб. ливневой дождь  10/10 600 м кучево-дожд. 
[Cb cap]
+8 +3.8 75 +6  1008.3  737  288           
06 21.07.17 010 (С) 20000 м  {ливн. осадки}  10/10 600 м кучево-дожд. 
[Cb cap]
+12.4 +3.4 54 +11  1008.3  0.4  738  284           
09 21.07.17 020 (С) 20000 м  в посл. час ливневой дождь  9/9 600 м кучево-дожд. 
[Cb cap]
+11.2 +2.7 56 +10  1008.8  0.4  738  285           
12 21.07.17 010 (С) 20000 м  {ливн. осадки}  8/8 1000 м кучево-дожд. 
[Cb cap]
+10.4 +0.4 50 +9  1009.2  0.3  738  286    +12.5     
15 21.07.17 020 (С) 20000 м  {ливн. осадки}  8/5 1000 м кучево-дожд., средняя 
[Cb cap|Ac trans]
+8.4 -0.2 55 +7  1009.1  -0.3  738  288           
18 21.07.17 010 (С) 20000 м  {ливн. осадки}  9/9 1000 м кучево-дожд. 
[Cb cap]
+8.4 -0.2 55 +7  1008.9  -0.2  738  288           
21 21.07.17 360 (С) 20000 м    9/9 1000 м кучево-дожд. 
[Cb cap]
+8.4 +1.9 64 +7  1009  0.1  738  288           
00 22.07.17 020 (С) 20000 м    10/10 1000 м кучево-дожд. 
[Cb cap]
+10.6 +3 59 +9  1008.5  -0.2  738  286  +8    0.0    влажная 
03 22.07.17 010 (С) 20000 м    10/10 1000 м кучево-дожд. 
[Cb cap]
+12.8 +3.4 53 +12  1008.1  -0.2  738  283           
06 22.07.17 360 (С) 20000 м    10/6 1000 м средняя, верхняя 
[Sc|Ac trans|Cs]
+17.6 +6 46 +19  1006.9  -0.8  737  278           
09 22.07.17 020 (С) 20000 м    10/8 1000 м кучево-дожд., средняя, верхняя 
[Cb cap|Ac trans|Cs]
+17.1 +4.5 43 +19  1006.5  -0.4  737  279           
12 22.07.17 260 (З) 20000 м    10/6 1000 м кучево-дожд., средняя, верхняя 
[Cb cap|Ac trans|Ci fib]
+14.6 +6.8 59 +16  1006.3  -0.3  736  281    +19.4       
15 22.07.17 тихо ()   20000 м    10/8 1000 м кучево-дожд., средняя, верхняя 
[Cb cap|Ac trans|Ci fib]
+9.8 +7.5 86 +10  1006.2  -0.6  736  285           
18 22.07.17 тихо ()   20000 м    10/4 1000 м кучево-дожд., средняя, верхняя 
[Cb cap|Ac trans|Ci fib]
+7 +5 87 +7  1005.6  -0.6  736  288           
21 22.07.17 тихо ()   20000 м    9/4 1000 м средняя 
[Sc|Ac trans]
+9.5 +7.4 87 +10  1004.9  -0.7  735  285           
Время (UTC), дата Ветер
(°,м/с) 
Видим.   Явления Облачность Т
(°С)
Тd
(°С)
f(%) Тe
(°С)
Pmin
(гПа)
dP
(гПа)
Po
(мм)
O2
(г/м3)
Тmin Tmax R s Состояние
почвы

Для получения пояснительной информации подведите курсор к названию столбца.

ПОГОДА Сегян-Кюель - архив

Всё, что Вы хотите узнать о погоде Сегян-Кюель - удобно и подробно!

Выберите нужную дату (начиная с 1 января 2015* года) и нажмите кнопку "Найти".
Будут отображены архивные сводки погоды по пункту Сегян-Кюель, начиная с указанной даты.


Отображать данные в формате CSV (для использования в таблицах Excel)


Внимание! Наш архив погоды предназначен исключительно для личного некоммерческого использования в познавательных целях. Если Вам необходимы официальные справки о состоянии погоды (для производственных, юридических, коммерческих и т.п. целей), обращайтесь в органы Росгидромета.

*Примечание: данная дата относится к архиву по метеостанциям СССР (Россия, СНГ, Балтия).
Архив по метеостанциям Зарубежной Европы и Азии (кроме Китая) хранится 10 дней, по другим регионам земного шара (Китай, Африка, Америка, Австралия, Океания) - 1 день.

Сегян-Кюель - район местоположения метеостанции


Название, широта, долгота, высота метеостанции:
Сегян-Кюель 64.00°ш. 130.30°д. 211 м над ур. моря [Российская Федерация]

Дополнительная информация

В oтличие oт бoльшинства пoгoдных сайтoв мы публикуем пoдрoбную метеoинфoрмацию в детальнoм прoфессиoнальнoм фoрмате.

Характеристики температуры и влажнoсти вoздуха измеряются на высoте 2 м в тени вдали oт зданий и деревьев.
Скoрoсть ветра измеряется на высoте 10 м (на урoвне рoста челoвека скoрoсть ветра ниже в 1.5-2 раза). Если метеoстанция нахoдится в гoрoде или в лесу, тo скoрoсть ветра занижена на 2-4 м/с пo сравнению с oткрытым местoм. Скoрoсть ветра над акватoриями крупных рек и oзёр, а также на вершинах хoлмoв на 2-5 м/с выше, чем в oбычных услoвиях.
Атмoсфернoе давление в разных тoчках местнoсти мoжет значительнo oтличаться oт давления на метеoстанции, в зависимoсти oт услoвий рельефа (при пoдъёме на 10 м давление пoнижается примернo на 1 мм рт.ст.).